Simultaneous Nadir Overpasses (SNOs) Predictions

Prediction of SNOs between GOES-16 and NOAA-20 Satellite Orbit:

Table of predicted SNOs for the next 14.0 days since TLE Epoch: 1/14/2023
Index Date Time (GOES-16) GOES-16 Lat,Lon NOAA-20 Lat,Lon Distance(km) Time Diff (sec)
1 01/15/2023 06:38:33 -0.04, -75.19 0.55, -77.98 316.52 80
2 01/16/2023 06:17:08 -0.04, -75.20 -0.46, -73.44 200.49 80
3 01/17/2023 18:39:05 0.03, -75.21 -0.75, -78.74 402.71 80
4 01/18/2023 18:23:00 0.03, -75.21 0.26, -74.21 114.43 80
5 01/20/2023 06:44:47 -0.02, -75.22 0.95, -79.47 485.35 80
6 01/21/2023 06:23:23 -0.01, -75.22 -0.07, -74.94 31.86 80
7 01/23/2023 18:26:35 0.01, -75.24 -0.11, -75.71 53.51 80
8 01/24/2023 18:10:30 0.02, -75.26 0.91, -71.18 464.23 80
9 01/26/2023 06:32:19 -0.02, -75.28 0.23, -76.45 133.70 80
10 01/27/2023 06:10:54 -0.02, -75.30 -0.79, -71.92 384.64 80
